TimeEDT,TemperatureF,Dew PointF,Humidity,Sea Level PressureIn,VisibilityMPH,Wind Direction,Wind SpeedMPH,Gust SpeedMPH,PrecipitationIn,Events,Conditions,WindDirDegrees,DateUTC
12:53 AM,48.0,30.0,50,30.22,10.0,Calm,Calm,-,N/A,,Overcast,0,2013-03-10 05:53:00
1:53 AM,46.0,33.1,61,30.22,10.0,Calm,Calm,-,N/A,,Mostly Cloudy,0,2013-03-10 06:53:00
3:53 AM,41.0,32.0,70,30.21,10.0,Calm,Calm,-,N/A,,Clear,0,2013-03-10 07:53:00
4:53 AM,46.0,30.0,54,30.20,10.0,ENE,3.5,-,N/A,,Clear,60,2013-03-10 08:53:00
5:53 AM,45.0,30.0,56,30.20,10.0,ENE,3.5,-,N/A,,Clear,70,2013-03-10 09:53:00
6:53 AM,41.0,32.0,70,30.21,10.0,ENE,3.5,-,N/A,,Clear,60,2013-03-10 10:53:00
8:53 AM,39.9,35.1,83,30.25,10.0,Calm,Calm,-,N/A,,Clear,0,2013-03-10 12:53:00
9:53 AM,43.0,34.0,71,30.26,10.0,Calm,Calm,-,N/A,,Clear,0,2013-03-10 13:53:00
10:53 AM,51.1,34.0,52,30.25,10.0,Calm,Calm,-,N/A,,Clear,0,2013-03-10 14:53:00
11:53 AM,57.0,34.0,42,30.24,10.0,SSW,6.9,-,N/A,,Clear,210,2013-03-10 15:53:00
12:53 PM,60.1,33.1,36,30.22,10.0,SW,10.4,18.4,N/A,,Clear,230,2013-03-10 16:53:00
1:53 PM,62.1,33.1,34,30.19,10.0,Calm,Calm,-,N/A,,Clear,0,2013-03-10 17:53:00
2:53 PM,64.0,33.1,31,30.16,10.0,Variable,3.5,-,N/A,,Clear,0,2013-03-10 18:53:00
3:53 PM,64.0,32.0,30,30.15,10.0,Variable,6.9,-,N/A,,Clear,0,2013-03-10 19:53:00
4:53 PM,64.9,33.1,31,30.14,10.0,Variable,3.5,-,N/A,,Clear,0,2013-03-10 20:53:00
5:53 PM,63.0,32.0,31,30.13,10.0,Variable,5.8,-,N/A,,Clear,0,2013-03-10 21:53:00
6:53 PM,62.1,30.9,31,30.13,10.0,Variable,3.5,-,N/A,,Clear,0,2013-03-10 22:53:00
7:53 PM,57.9,32.0,37,30.16,10.0,Calm,Calm,-,N/A,,Clear,0,2013-03-10 23:53:00
8:53 PM,55.0,33.1,43,30.16,10.0,Calm,Calm,-,N/A,,Clear,0,2013-03-11 00:53:00
9:53 PM,55.0,32.0,42,30.16,10.0,Calm,Calm,-,N/A,,Clear,0,2013-03-11 01:53:00
10:53 PM,52.0,32.0,47,30.17,10.0,Calm,Calm,-,N/A,,Clear,0,2013-03-11 02:53:00
11:53 PM,53.1,32.0,45,30.14,10.0,Calm,Calm,-,N/A,,Clear,0,2013-03-11 03:53:00
12:53 AM,48.0,33.1,56,30.14,9.0,Calm,Calm,-,N/A,,Clear,0,2013-03-11 04:53:00